Date,TemperatureHighF,TemperatureAvgF,TemperatureLowF,DewpointHighF,DewpointAvgF,DewpointLowF,HumidityHigh,HumidityAvg,HumidityLow,PressureMaxIn,PressureMinIn,WindSpeedMaxMPH,WindSpeedAvgMPH,GustSpeedMaxMPH,PrecipitationSumIn
2013-1-1,58.0,46.7,35.0,32.0,23.0,15.5,74,43,24,30.43,29.07,19,6,32,0.00
2013-1-2,63.0,55.0,44.0,24.2,17.1,11.2,39,23,16,30.43,29.07,19,9,37,0.00
2013-1-3,64.0,55.7,45.0,22.7,14.2,6.5,37,20,13,30.43,29.07,18,8,35,0.00
2013-1-4,64.0,49.6,40.0,22.4,18.4,12.9,43,30,15,30.43,29.07,8,3,14,0.00
2013-1-5,65.0,49.4,37.0,31.4,22.7,13.8,54,38,14,30.43,29.35,7,3,12,0.00
2013-1-6,57.0,46.4,40.0,43.3,36.8,24.6,91,70,49,30.21,30.02,10,2,15,0.06
2013-1-7,63.0,53.9,43.0,40.7,27.1,17.9,91,39,20,30.43,29.07,22,9,36,0.01
2013-1-8,74.0,62.9,51.0,39.9,30.0,17.6,63,31,19,30.43,29.07,17,7,28,0.00
2013-1-9,72.0,57.5,47.0,44.6,37.4,33.1,88,50,28,30.43,29.35,9,3,14,0.00
2013-1-10,56.0,47.2,37.0,46.2,36.0,21.8,91,67,32,30.07,29.87,13,4,22,0.00
2013-1-11,52.0,40.9,29.0,30.0,24.2,18.2,81,53,34,30.19,30.01,10,3,23,0.00
2013-1-12,53.0,42.2,32.0,26.6,19.7,13.4,65,43,23,30.43,29.07,11,4,18,0.00
2013-1-13,53.0,41.7,31.0,26.5,17.4,9.4,59,39,21,30.43,29.07,15,5,28,0.00
2013-1-14,48.0,41.4,35.0,9.5,4.6,0.8,30,22,15,30.43,29.07,28,11,41,0.00
2013-1-15,61.0,48.6,33.0,25.8,19.2,5.7,48,32,21,30.44,29.07,21,6,33,0.00
2013-1-16,68.0,56.9,42.0,29.8,23.9,18.0,50,30,18,30.43,29.07,20,7,33,0.00
2013-1-17,70.0,62.5,50.0,25.0,16.2,9.5,37,17,11,30.43,29.07,20,10,37,0.00
2013-1-18,72.0,59.7,47.0,27.5,18.8,9.5,38,22,12,30.43,29.07,15,7,27,0.00
2013-1-19,72.0,60.8,47.0,25.0,16.4,8.4,36,20,10,30.43,29.07,16,7,28,0.00
2013-1-20,73.0,60.5,48.0,23.2,14.0,4.7,32,18,9,30.43,29.07,18,8,31,0.00
2013-1-21,76.0,64.3,48.0,20.7,10.6,-0.7,32,14,6,30.43,29.07,18,7,34,0.00
2013-1-22,79.0,60.6,47.0,25.0,17.6,6.7,32,21,7,30.43,29.07,11,4,17,0.00
2013-1-23,78.0,63.4,52.0,39.9,30.3,19.8,49,29,18,30.43,29.07,9,3,13,0.00
2013-1-24,65.0,57.6,52.0,54.2,49.0,37.6,90,74,48,30.23,30.09,7,2,12,0.25
2013-1-25,60.0,57.2,54.0,55.8,52.3,46.9,92,84,68,30.16,29.94,11,4,21,0.52
2013-1-26,64.0,57.8,54.0,59.1,54.4,51.0,94,89,77,29.99,29.88,7,3,14,0.01
2013-1-27,61.0,53.4,42.0,53.4,46.4,36.0,93,78,55,30.46,29.92,12,5,18,0.25
2013-1-28,56.0,44.9,38.0,43.1,35.4,28.4,94,72,40,30.17,29.99,9,2,12,0.01
2013-1-29,58.0,45.4,35.0,38.7,33.8,26.9,80,65,41,30.23,30.13,7,2,10,0.00
2013-1-30,94.0,51.0,38.0,46.1,38.6,34.3,88,66,36,30.33,30.19,8,2,12,0.00
2013-1-31,74.0,59.2,43.0,42.5,36.1,32.3,80,47,23,30.43,29.07,14,5,26,0.00
2013-2-1,75.0,60.0,45.0,42.8,38.1,32.3,64,46,25,30.43,29.07,9,3,14,0.00
2013-2-2,76.0,63.9,55.0,45.7,37.8,31.5,57,40,24,30.43,29.07,10,4,18,0.00
2013-2-3,74.0,62.5,52.0,47.8,42.6,38.0,68,50,29,30.43,29.98,14,5,23,0.00
2013-2-4,72.0,57.0,44.0,48.3,42.8,36.0,86,62,32,30.09,29.96,10,3,15,0.00
2013-2-5,61.0,50.9,42.0,51.2,45.6,38.0,92,82,64,30.10,29.97,9,2,14,0.00
2013-2-6,63.0,54.0,45.0,49.4,45.7,41.7,89,75,51,30.12,29.99,9,3,14,0.00
2013-2-7,64.0,51.7,43.0,50.2,44.5,39.0,94,78,53,30.48,29.97,12,3,20,0.00
2013-2-8,49.0,42.9,37.0,43.6,38.8,34.3,92,86,76,30.00,29.88,11,4,18,0.47
2013-2-9,53.0,44.0,34.0,40.0,35.6,31.5,94,74,51,30.46,29.91,9,2,18,0.01
2013-2-10,55.0,45.7,36.0,40.0,35.7,30.7,86,69,49,30.11,29.99,8,2,10,0.00
2013-2-11,59.0,47.1,36.0,36.8,23.0,6.6,91,47,15,30.43,29.07,20,5,32,0.00
2013-2-12,63.0,48.0,35.0,37.3,26.2,18.5,73,45,22,30.43,29.07,10,4,16,0.00
2013-2-13,71.0,51.3,35.0,37.3,31.4,21.5,75,52,18,30.43,29.07,16,4,23,0.00
2013-2-14,74.0,58.7,40.0,39.5,29.9,21.5,78,40,16,30.43,29.07,17,5,29,0.00
2013-2-15,77.0,65.1,48.0,29.6,22.5,15.0,47,21,11,30.43,29.07,20,8,28,0.01
2013-2-16,79.0,65.7,52.0,28.2,20.6,7.4,34,19,7,30.43,29.32,19,6,33,0.00
2013-2-17,70.0,55.2,42.0,44.3,31.5,22.7,87,44,19,30.43,29.07,11,3,20,0.00
2013-2-18,63.0,51.6,44.0,45.9,43.0,38.0,91,75,42,30.08,29.92,8,3,13,0.00
2013-2-19,56.0,48.2,41.0,43.7,40.3,36.5,90,75,57,29.98,29.69,11,4,18,0.27
2013-2-20,56.0,45.3,37.0,38.6,35.1,32.1,91,70,42,30.00,29.65,10,3,17,0.16
2013-2-21,59.0,47.3,38.0,39.8,32.7,21.6,84,61,26,30.43,29.07,12,3,20,0.00
2013-2-22,64.0,48.9,34.0,39.0,32.6,26.5,81,56,26,30.43,29.07,11,3,17,0.00
2013-2-23,64.0,51.2,37.0,41.9,35.0,23.8,82,57,33,30.17,29.90,15,4,26,0.00
2013-2-24,63.0,53.9,44.0,24.6,9.9,0.1,33,18,9,30.43,29.07,25,10,41,0.00
2013-2-25,67.0,51.8,39.0,33.9,22.3,13.7,65,34,13,30.69,29.07,11,3,17,0.00
2013-2-26,71.0,55.2,35.0,33.2,22.0,9.8,75,35,12,30.43,29.34,16,6,30,0.00
2013-2-27,69.0,57.8,44.0,23.3,14.4,4.5,37,20,10,30.43,29.07,18,8,31,0.00
2013-2-28,76.0,61.3,46.0,25.2,17.3,9.9,35,20,9,30.43,29.07,11,5,21,0.00
2013-3-1,82.0,66.5,48.0,28.4,23.0,13.7,41,22,10,30.43,29.07,14,5,23,0.00
2013-3-2,84.0,66.9,52.0,33.2,28.4,20.0,39,25,11,30.43,29.07,10,4,16,0.00
2013-3-3,74.0,60.0,50.0,42.9,35.2,25.8,70,41,20,30.43,29.07,14,4,22,0.00
2013-3-4,69.0,57.3,48.0,48.6,45.6,41.3,87,67,40,30.11,30.00,11,3,15,0.00
2013-3-5,68.0,55.1,45.0,52.1,46.5,42.0,91,74,47,30.10,29.98,13,4,20,0.00
2013-3-6,65.0,54.6,47.0,46.0,43.0,39.5,83,66,44,30.14,29.98,10,4,17,0.00
2013-3-7,59.0,52.2,47.0,49.9,44.9,39.2,92,77,59,30.01,29.85,9,3,15,0.19
2013-3-8,55.0,46.7,43.0,46.6,41.2,35.8,91,82,56,30.03,29.75,16,4,26,0.58
2013-3-9,64.0,52.0,44.0,48.5,42.5,37.9,90,72,47,30.55,30.01,11,3,16,0.14
2013-3-10,74.0,59.2,41.0,40.1,29.6,18.4,89,39,13,30.43,29.07,17,6,29,0.00
2013-3-11,78.0,60.2,45.0,41.4,34.2,24.1,60,41,14,30.43,29.07,10,3,17,0.00
2013-3-12,85.0,64.7,46.0,48.4,38.3,27.3,67,42,14,30.43,29.07,11,3,18,0.00
2013-3-13,90.0,70.6,55.0,49.0,39.2,25.4,56,36,11,30.43,29.07,9,3,15,0.00
2013-3-14,93.0,71.1,52.0,48.4,41.4,29.2,58,38,11,30.43,29.07,12,3,18,0.00
2013-3-15,86.0,67.3,52.0,48.9,43.6,33.8,71,46,16,30.43,29.07,12,3,20,0.00
2013-3-16,78.0,61.3,49.0,52.0,46.9,42.9,87,62,34,29.96,29.85,10,3,17,0.00
2013-3-17,74.0,58.2,50.0,54.2,48.5,44.7,92,73,40,30.01,29.90,9,3,14,0.00
2013-3-18,70.0,57.5,51.0,52.7,48.9,45.7,90,74,52,30.09,29.98,10,3,17,0.00
2013-3-19,70.0,57.8,49.0,52.6,48.9,44.6,90,74,48,30.12,30.03,9,2,12,0.00
2013-3-20,74.0,60.6,50.0,53.2,49.3,45.9,90,69,42,30.11,29.96,10,2,14,0.00
2013-3-21,75.0,60.5,49.0,52.6,47.9,44.1,88,66,38,29.98,29.80,12,3,18,0.00
2013-3-22,75.0,59.6,47.0,51.6,46.2,31.9,91,66,22,30.43,29.07,17,4,25,0.00
2013-3-23,79.0,60.6,45.0,51.7,44.7,30.4,90,62,20,30.43,29.07,11,3,17,0.00
2013-3-24,81.0,62.9,47.0,49.8,43.6,27.4,85,56,15,30.43,29.07,12,3,20,0.00
2013-3-25,84.0,65.0,48.0,47.7,40.4,31.4,71,44,16,30.43,29.07,12,3,17,0.00
2013-3-26,79.0,61.9,49.0,53.1,45.4,37.8,83,59,26,30.43,29.07,12,3,18,0.00
2013-3-27,75.0,59.0,50.0,53.6,48.2,45.0,90,70,35,30.05,29.92,10,3,22,0.00
2013-3-28,79.0,62.3,48.0,52.2,48.1,44.3,89,63,32,30.08,30.00,8,2,17,0.00
2013-3-29,82.7,64.4,50.0,53.4,48.6,41.2,86,61,24,30.22,29.82,10,3,23,0.00
2013-3-30,79.3,64.1,54.0,54.6,49.0,42.2,86,61,27,30.40,30.02,10,4,18,0.00
2013-3-31,71.9,59.6,50.0,52.3,48.4,43.7,83,68,46,30.12,30.02,10,4,24,0.00
2013-4-1,67.6,58.7,51.0,49.3,46.9,43.9,85,67,46,30.16,30.06,10,4,17,0.00
2013-4-2,77.0,65.3,54.0,50.9,48.7,44.6,82,57,34,30.09,29.96,12,4,17,0.00
2013-4-3,87.0,66.0,49.0,53.1,47.1,38.1,85,57,19,30.43,29.07,15,3,20,0.00
2013-4-4,80.0,63.5,53.0,57.0,50.3,44.0,90,66,30,30.43,29.99,11,3,16,0.00
2013-4-5,74.0,60.8,52.0,54.4,51.2,47.9,89,72,47,30.09,29.97,10,3,14,0.00
2013-4-6,76.0,62.7,55.0,55.3,50.8,46.9,86,67,41,30.07,29.94,13,4,23,0.00
2013-4-7,77.0,61.0,49.0,54.5,49.5,45.3,89,68,38,29.98,29.81,12,3,17,0.00
2013-4-8,65.0,56.5,50.0,51.5,45.1,37.7,88,67,42,29.83,29.65,14,5,23,0.01
2013-4-9,76.0,59.7,45.0,43.4,30.7,7.4,83,42,7,30.43,29.07,21,6,36,0.00
2013-4-10,84.0,68.0,49.0,34.0,21.4,2.2,54,20,5,30.43,29.07,17,6,26,0.00
2013-4-11,83.0,64.3,48.0,49.0,37.1,28.7,77,40,16,30.43,29.07,15,4,23,0.00
2013-4-12,83.0,63.5,51.0,53.6,49.5,44.9,88,64,29,30.43,29.43,12,3,18,0.00
2013-4-13,75.0,59.9,51.0,55.9,50.9,47.0,89,74,48,29.92,29.81,11,3,17,0.00
2013-4-14,62.0,55.8,52.0,50.2,48.4,45.6,86,77,59,29.88,29.43,11,4,16,0.00
2013-4-15,66.0,55.9,51.0,52.2,48.2,43.6,90,76,53,29.90,29.80,15,4,22,0.01
2013-4-16,68.0,54.7,48.0,47.1,40.7,35.3,84,61,36,29.97,29.85,15,4,23,0.00
2013-4-17,72.0,59.4,47.0,36.2,21.7,3.0,61,27,7,30.43,29.07,18,7,28,0.00
2013-4-18,77.0,65.0,51.0,27.5,12.1,0.4,40,14,6,30.43,29.07,18,8,31,0.00
2013-4-19,87.0,67.2,47.0,30.5,19.6,5.7,38,19,5,30.43,29.36,17,3,26,0.00
2013-4-20,92.0,71.2,50.0,46.9,33.9,20.8,48,29,9,30.43,29.07,16,5,25,0.00
2013-4-21,89.0,71.0,54.0,47.9,41.2,32.0,63,38,14,30.43,29.07,14,4,23,0.00
2013-4-22,83.0,64.5,52.0,56.1,47.8,41.0,89,59,25,30.43,29.07,14,3,21,0.00
2013-4-23,85.0,65.5,53.0,53.0,49.1,42.2,84,60,23,30.43,29.07,12,4,21,0.00
2013-4-24,73.0,60.6,54.0,54.5,50.2,43.7,85,70,51,29.98,29.88,16,5,25,0.00
2013-4-25,74.0,61.7,55.0,50.7,46.5,43.3,72,59,41,30.12,29.95,11,3,16,0.00
2013-4-26,85.0,65.6,49.0,50.3,46.3,41.0,81,54,25,30.43,29.07,12,3,20,0.00
2013-4-27,90.0,70.0,51.0,52.6,48.7,44.0,78,51,24,30.43,29.07,14,4,22,0.00
2013-4-28,90.0,70.5,54.0,56.5,51.9,47.3,83,56,24,30.43,29.07,10,3,17,0.00
2013-4-29,89.0,68.8,54.0,59.4,52.3,42.3,90,61,23,30.43,29.07,13,3,20,0.00
2013-4-30,79.0,63.2,55.0,55.9,51.8,49.0,85,69,39,30.43,29.78,14,4,24,0.00
2013-5-1,93.0,70.9,58.0,55.4,42.9,-12.8,78,51,2,30.46,29.07,14,4,25,0.00
2013-5-2,90.0,75.5,54.0,51.4,7.2,-24.4,86,18,1,30.18,29.43,22,10,41,0.00
2013-5-3,97.0,77.6,59.0,30.7,12.9,-20.8,27,11,2,30.07,29.07,13,4,26,0.00
2013-5-4,85.0,68.1,53.0,50.7,37.7,22.3,74,37,11,30.43,29.07,16,4,28,0.00
2013-5-5,70.0,60.9,56.0,50.7,46.9,44.2,74,60,45,29.96,29.84,13,5,18,0.00
2013-5-6,68.0,59.2,55.0,59.8,50.2,44.9,88,73,56,30.03,29.91,12,4,18,0.18
2013-5-7,73.0,61.1,53.0,52.5,47.0,41.9,84,62,39,30.08,29.98,15,4,22,0.00
2013-5-8,76.0,62.6,55.0,51.3,47.5,42.8,78,59,40,30.10,30.03,16,4,26,0.00
2013-5-9,80.0,63.7,50.0,52.8,48.3,42.9,80,59,36,30.11,29.99,14,4,23,0.00
2013-5-10,88.0,70.3,56.0,56.8,52.9,46.3,86,58,26,30.43,29.07,16,4,25,0.00
2013-5-11,101.0,77.8,58.0,58.2,51.3,32.2,83,47,10,30.43,29.07,15,3,26,0.00
2013-5-12,105.0,83.5,63.0,53.6,41.6,7.5,58,29,4,30.43,29.07,17,4,30,0.00
2013-5-13,104.0,85.5,67.0,48.8,40.0,19.8,41,24,6,30.43,29.07,21,4,29,0.00
2013-5-14,93.0,76.5,61.0,48.5,42.1,14.8,63,33,7,30.43,29.07,18,5,27,0.00
2013-5-15,87.0,69.0,55.0,54.8,49.7,42.2,81,54,25,30.43,29.07,11,3,20,0.00
2013-5-16,82.0,66.0,55.0,56.4,51.8,47.4,85,63,33,30.46,29.86,13,4,22,0.00
2013-5-17,76.0,65.6,59.0,56.8,52.1,48.3,79,63,42,30.43,29.90,13,5,20,0.00
2013-5-18,80.0,67.5,57.0,54.6,51.6,48.6,80,59,36,30.46,29.96,12,4,20,0.00
2013-5-19,87.0,69.3,54.0,56.1,51.6,46.5,82,57,28,30.43,29.07,14,4,21,0.00
2013-5-20,97.0,75.7,56.0,57.2,44.6,8.5,83,46,4,30.43,29.07,17,4,25,0.00
2013-5-21,92.0,73.0,58.0,60.2,52.9,39.3,85,55,18,30.43,29.07,12,4,23,0.00
2013-5-22,85.0,69.2,60.0,57.7,53.2,49.2,83,60,32,29.86,29.73,15,4,24,0.00
2013-5-23,80.0,66.4,57.0,53.1,48.6,44.0,70,55,32,30.43,29.81,12,4,20,0.00
2013-5-24,83.0,66.3,57.0,52.1,48.2,42.0,73,55,26,30.43,29.07,15,4,23,0.00
2013-5-25,81.0,64.7,54.0,53.1,48.1,38.6,82,59,25,30.43,29.07,13,4,22,0.00
2013-5-26,81.0,64.9,53.0,55.0,49.7,44.7,85,61,32,30.06,29.96,12,4,23,0.00
2013-5-27,86.0,67.8,55.0,56.4,51.1,24.9,81,58,27,30.43,29.43,16,4,23,0.00
2013-5-28,80.0,66.6,58.0,55.8,53.0,49.8,82,63,41,29.90,29.75,10,3,17,0.00
2013-5-29,90.0,72.1,55.0,57.8,52.6,47.3,86,55,28,30.43,29.07,12,4,20,0.00
2013-5-30,91.0,73.2,57.0,56.4,52.5,46.4,79,52,24,30.43,29.07,14,4,23,0.00
2013-5-31,92.0,72.9,60.0,61.3,55.1,46.4,85,58,23,30.43,29.07,12,4,18,0.00
2013-6-1,102.0,77.2,60.0,61.2,55.6,42.3,84,54,15,30.43,29.07,15,4,26,0.00
2013-6-2,89.0,72.2,61.0,61.5,56.2,51.7,84,60,33,30.28,29.73,14,4,25,0.00
2013-6-3,87.0,69.4,59.0,58.2,53.9,49.1,82,61,29,30.43,29.43,12,4,20,0.00
2013-6-4,86.0,68.6,60.0,58.2,53.7,48.4,79,62,30,29.98,29.87,14,4,23,0.00
2013-6-5,88.0,69.3,57.0,59.2,52.6,44.2,84,60,24,30.43,29.07,12,3,17,0.00
2013-6-6,89.0,70.6,56.0,59.0,53.0,48.4,85,58,27,30.43,29.07,12,3,20,0.00
2013-6-7,91.0,70.7,57.0,59.9,53.8,48.8,87,60,26,30.43,29.07,11,4,17,0.00
2013-6-8,92.0,71.5,58.0,59.8,55.1,50.8,86,60,28,30.43,29.33,14,4,22,0.00
2013-6-9,93.0,70.9,56.0,61.1,54.9,50.3,88,61,26,30.43,29.07,17,3,25,0.00
2013-6-10,88.0,70.2,57.0,58.1,52.7,48.1,86,58,27,30.43,29.07,13,4,22,0.00
2013-6-11,100.0,76.3,57.0,56.8,50.9,35.3,82,48,12,30.43,29.07,15,3,22,0.00
2013-6-12,86.0,71.5,60.0,61.7,56.6,50.1,86,62,32,30.38,29.43,13,4,18,0.00
2013-6-13,91.0,71.9,58.0,61.1,54.6,47.5,87,60,24,30.43,29.07,12,3,16,0.00
2013-6-14,91.0,71.9,57.0,60.6,54.2,48.8,87,58,25,30.43,29.07,14,3,18,0.00
2013-6-15,89.0,69.6,57.0,60.1,52.8,44.7,86,60,23,30.43,29.07,13,3,18,0.00
2013-6-16,91.0,71.9,55.0,58.8,52.6,44.4,86,55,22,30.43,29.07,12,3,18,0.00
2013-6-17,94.0,75.4,58.0,57.8,52.6,44.0,82,49,21,30.44,29.07,13,3,20,0.00
2013-6-18,93.0,75.3,60.0,57.9,52.7,45.2,78,49,23,30.43,29.07,14,4,22,0.00
2013-6-19,90.0,72.8,57.0,59.4,53.1,47.5,86,54,26,30.43,29.07,14,4,20,0.00
2013-6-20,92.0,74.5,58.0,55.1,49.6,40.8,74,45,20,30.43,29.07,14,3,23,0.00
2013-6-21,92.0,75.3,59.0,54.1,47.3,38.5,64,41,17,30.43,29.07,12,3,20,0.00
2013-6-22,90.0,74.3,59.0,56.9,52.1,44.8,78,49,27,30.43,29.07,11,4,20,0.00
2013-6-23,85.0,69.3,59.0,60.2,53.8,47.5,85,61,31,30.43,29.77,12,4,18,0.00
2013-6-24,82.0,68.4,60.0,57.0,54.3,51.2,85,63,39,29.95,29.83,10,4,16,0.00
2013-6-25,89.0,73.9,58.0,60.0,56.1,52.3,83,56,36,30.00,29.90,12,3,17,0.00
2013-6-26,98.0,81.5,63.0,61.0,56.8,52.8,77,47,25,30.46,29.07,12,3,20,0.00
2013-6-27,103.0,85.3,67.0,61.5,55.4,47.4,71,40,17,30.43,29.07,16,3,21,0.00
2013-6-28,105.0,86.6,68.0,60.4,55.6,46.6,71,39,17,30.43,29.07,13,3,21,0.00
2013-6-29,108.0,88.2,70.0,59.7,55.1,37.4,66,37,10,30.43,29.07,12,3,17,0.00
2013-6-30,108.0,88.2,72.0,60.5,54.6,34.0,54,36,9,30.43,29.07,16,4,25,0.00
2013-7-1,103.0,85.8,71.0,64.9,55.6,45.0,66,40,15,30.43,29.07,12,4,18,0.00
2013-7-2,100.0,81.8,69.0,61.3,55.4,41.7,65,43,17,30.43,29.07,14,3,22,0.00
2013-7-3,99.0,80.0,67.0,64.3,55.9,43.2,74,48,18,30.43,29.07,12,3,20,0.00
2013-7-4,100.0,81.2,66.0,60.5,53.3,30.7,72,43,12,30.43,29.07,12,4,20,0.00
2013-7-5,96.0,77.2,62.0,63.2,55.9,45.2,81,53,20,30.43,29.07,12,4,20,0.00
2013-7-6,95.9,76.2,62.0,64.9,57.9,52.4,83,57,26,30.43,29.07,11,3,18,0.00
2013-7-7,98.0,79.4,62.0,63.6,56.9,45.7,84,51,18,30.43,29.07,10,3,17,0.00
2013-7-8,103.0,83.4,64.0,61.0,53.1,42.3,77,41,15,30.43,29.07,11,3,17,0.00
2013-7-9,104.0,84.5,67.0,57.4,50.0,29.6,61,35,8,30.43,29.07,16,4,26,0.00
2013-7-10,93.0,79.9,71.0,59.2,55.1,51.2,56,43,31,30.43,29.90,13,4,20,0.00
2013-7-11,86.0,75.6,70.0,62.4,58.0,53.6,67,55,36,30.01,29.88,10,2,16,0.00
2013-7-12,95.0,79.9,69.0,65.5,58.4,50.9,77,52,24,30.43,29.07,13,4,20,0.00
2013-7-13,97.0,79.4,63.0,61.0,54.4,43.4,81,47,18,30.43,29.07,12,4,18,0.00
2013-7-14,98.0,81.0,67.0,61.3,53.7,44.9,70,43,19,30.43,29.07,13,4,20,0.00
2013-7-15,97.0,80.5,66.0,60.6,53.1,42.5,74,42,21,30.43,29.07,11,3,20,0.00
2013-7-16,96.0,78.2,60.0,52.1,41.5,6.4,64,33,5,30.43,29.07,15,4,23,0.00
2013-7-17,99.0,78.9,58.0,47.0,34.2,1.5,58,26,3,30.43,29.07,14,3,18,0.00
2013-7-18,99.0,78.7,60.0,56.9,46.3,23.6,57,35,10,30.43,29.07,11,3,18,0.00
2013-7-19,100.0,79.4,63.0,60.3,56.8,52.2,76,50,24,30.43,29.07,13,3,20,0.00
2013-7-20,88.0,73.0,63.0,70.9,61.4,56.0,83,68,45,29.91,29.80,9,3,14,0.01
2013-7-21,81.0,72.0,67.0,64.4,62.0,59.3,82,71,54,30.43,29.80,8,2,12,0.01
2013-7-22,94.0,78.3,66.0,66.7,61.9,56.9,85,60,36,30.00,29.90,16,4,22,0.00
2013-7-23,94.0,78.4,65.0,63.6,59.3,53.5,79,54,32,30.43,29.92,11,4,18,0.00
2013-7-24,97.0,78.8,64.0,63.3,57.1,50.8,67,49,31,30.00,29.88,13,3,20,0.00
2013-7-25,98.0,79.9,64.0,62.0,58.1,53.5,74,50,30,30.43,29.43,11,3,17,0.00
2013-7-26,88.0,76.5,67.0,65.6,59.6,55.9,72,57,39,30.43,29.97,8,3,12,0.00
2013-7-27,95.0,78.3,65.0,64.4,59.3,55.9,77,55,31,30.03,29.88,11,4,20,0.00
2013-7-28,93.0,74.5,61.0,63.7,57.3,47.5,86,59,26,30.43,29.07,13,4,21,0.00
2013-7-29,93.0,73.4,58.0,61.5,55.4,50.3,87,58,25,30.43,29.07,11,4,18,0.00
2013-7-30,94.0,74.1,59.0,60.0,55.0,50.7,82,55,26,30.43,29.07,13,4,20,0.00
2013-7-31,91.0,71.9,59.0,60.0,55.6,51.9,83,59,33,30.43,29.96,12,4,20,0.00
2013-8-1,88.0,70.1,57.0,60.6,54.3,49.8,88,62,28,30.43,29.33,13,3,20,0.00
2013-8-2,92.0,72.8,57.0,61.5,55.0,51.0,86,58,28,30.43,29.43,11,3,20,0.00
2013-8-3,94.0,72.8,58.0,62.8,56.1,44.8,87,60,24,30.43,29.07,13,3,18,0.00
2013-8-4,93.0,74.6,58.0,61.5,55.7,46.9,88,57,22,30.43,29.07,13,3,20,0.00
2013-8-5,95.0,75.7,58.0,61.5,52.6,32.9,86,52,13,30.43,29.43,11,3,20,0.00
2013-8-6,94.0,73.6,56.0,60.2,51.3,32.5,87,53,14,30.43,29.07,14,3,20,0.00
2013-8-7,92.0,73.1,58.0,60.0,52.5,31.0,85,54,16,30.52,29.07,11,3,16,0.00
2013-8-8,93.0,73.9,57.0,57.3,51.0,35.2,85,51,15,30.43,29.07,12,3,20,0.00
2013-8-9,91.0,72.0,56.0,59.8,53.4,44.4,87,57,23,30.43,29.07,12,3,20,0.00
2013-8-10,89.0,70.7,56.0,61.0,53.9,46.3,88,60,27,30.43,29.07,11,3,17,0.00
2013-8-11,92.0,73.8,57.0,59.4,54.1,46.7,86,55,25,30.43,29.07,12,3,20,0.00
2013-8-12,95.0,74.9,58.0,60.6,55.2,43.0,86,56,20,30.43,29.07,12,3,17,0.00
2013-8-13,98.0,76.7,59.0,63.4,56.5,46.3,86,55,21,30.43,29.07,10,3,15,0.00
2013-8-14,103.0,78.6,60.0,62.9,56.9,46.6,86,54,17,30.43,29.07,12,3,18,0.01
2013-8-15,103.0,80.9,63.0,64.4,56.1,45.6,81,49,17,30.43,29.07,16,3,23,0.00
2013-8-16,99.0,82.1,65.0,62.5,55.9,44.0,77,45,19,30.43,29.07,15,3,22,0.00
2013-8-17,101.0,82.4,66.0,61.1,53.0,42.6,71,41,16,30.43,29.07,13,3,20,0.00
2013-8-18,101.0,81.1,66.0,59.5,54.7,48.0,66,43,21,30.43,29.07,13,3,22,0.00
2013-8-19,97.0,79.1,67.0,63.4,58.6,55.3,70,52,30,30.43,29.83,11,4,18,0.00
2013-8-20,98.0,79.8,64.0,64.5,56.0,44.9,78,48,19,30.43,29.07,12,3,18,0.00
2013-8-21,103.0,82.0,64.0,59.7,50.9,37.6,73,40,11,30.43,29.07,15,3,21,0.00
2013-8-22,101.0,83.6,65.0,53.6,46.3,34.4,60,31,11,30.43,29.07,14,4,24,0.00
2013-8-23,102.0,81.7,64.0,51.6,46.2,29.9,58,33,9,30.43,29.37,14,4,25,0.00
2013-8-24,101.0,80.2,62.0,56.3,49.5,33.8,74,40,12,30.43,29.07,15,4,20,0.00
2013-8-25,100.0,82.2,66.0,63.5,52.0,34.9,69,40,13,30.43,29.07,16,4,28,0.00
2013-8-26,92.0,81.7,71.0,63.3,58.0,48.5,59,45,36,29.96,29.83,8,2,13,0.00
2013-8-27,102.0,84.8,71.0,64.0,57.3,46.6,67,42,25,30.43,29.07,17,3,28,0.00
2013-8-28,103.0,85.1,70.0,58.8,54.7,48.8,56,37,22,30.43,29.07,13,3,23,0.00
2013-8-29,107.0,85.6,71.0,70.0,57.6,49.4,63,40,20,30.43,29.33,17,3,26,0.13
2013-8-30,103.0,86.8,77.0,70.3,64.2,55.2,70,49,30,30.43,29.91,14,4,23,0.00
2013-8-31,98.0,85.5,78.0,70.2,66.1,60.7,73,54,35,30.01,29.86,14,4,22,0.00
2013-9-1,98.0,82.5,72.0,68.2,63.8,59.6,76,56,32,29.96,29.83,13,3,21,0.00
2013-9-2,100.0,82.9,69.0,67.0,61.7,54.3,80,52,27,30.43,29.07,12,3,17,0.00
2013-9-3,102.0,85.3,73.0,65.5,59.5,53.9,70,45,23,30.43,29.07,13,3,22,0.00
2013-9-4,106.0,87.0,72.0,62.3,57.0,49.8,61,39,21,30.43,29.07,17,3,26,0.00
2013-9-5,105.0,88.0,73.0,60.4,53.5,44.7,55,33,19,30.43,29.07,13,3,21,0.00
2013-9-6,102.0,86.7,73.0,56.5,50.6,44.0,48,31,18,30.43,29.07,10,3,17,0.00
2013-9-7,105.0,86.7,74.0,60.1,51.9,43.0,45,32,17,30.43,29.07,16,3,25,0.00
2013-9-8,99.0,81.9,68.0,59.2,51.8,41.8,61,38,16,30.43,29.07,11,3,18,0.00
2013-9-9,94.0,79.4,70.0,55.6,51.6,41.1,52,40,19,30.43,29.07,13,3,21,0.00
2013-9-10,92.0,74.0,62.0,58.8,54.0,46.7,78,53,25,30.43,29.07,13,3,20,0.00
2013-9-11,90.0,72.1,59.0,60.1,54.9,49.0,84,58,27,30.43,29.07,13,3,18,0.00
2013-9-12,96.0,76.2,60.0,61.0,51.0,34.1,84,49,13,30.43,29.07,11,2,17,0.00
2013-9-13,98.0,78.2,60.0,57.3,49.1,34.9,64,41,13,30.43,29.07,11,3,17,0.00
2013-9-14,102.0,81.7,64.0,57.4,52.8,44.1,64,41,15,30.43,29.07,12,3,20,0.00
2013-9-15,103.0,81.8,65.0,57.5,52.8,41.9,68,41,13,30.43,29.07,12,3,21,0.00
2013-9-16,102.0,80.8,64.0,55.9,49.6,39.1,67,39,12,30.43,29.07,13,3,22,0.00
2013-9-17,91.0,73.8,59.0,56.9,51.3,43.5,73,49,20,29.83,29.72,10,3,17,0.00
2013-9-18,87.0,67.9,58.0,60.7,54.6,46.4,89,67,27,30.43,29.43,17,2,17,0.00
2013-9-19,90.0,70.4,56.0,59.7,55.6,50.9,84,63,29,30.43,29.43,12,3,17,0.00
2013-9-20,82.0,67.6,61.0,62.4,58.5,55.5,87,74,47,30.43,29.82,10,3,17,0.00
2013-9-21,80.0,68.3,63.0,60.3,56.4,52.4,84,67,40,29.92,29.78,12,4,20,0.00
2013-9-22,80.0,66.6,56.0,57.4,51.2,44.7,86,61,32,29.87,29.76,13,3,20,0.00
2013-9-23,94.0,73.0,54.0,51.2,43.2,32.1,76,42,13,30.43,29.07,11,3,17,0.00
2013-9-24,92.0,73.3,59.0,45.6,40.9,33.8,51,34,15,30.43,29.07,12,3,20,0.00
2013-9-25,84.0,67.0,55.0,53.1,46.8,40.3,70,51,27,30.43,29.07,15,4,22,0.00
2013-9-26,77.0,64.2,55.0,53.9,45.9,33.8,76,54,22,30.43,29.07,12,4,18,0.00
2013-9-27,82.0,67.6,51.0,40.6,29.3,16.1,65,29,10,30.43,29.07,18,6,29,0.00
2013-9-28,91.0,71.2,56.0,36.5,24.8,-2.5,38,21,4,30.43,29.07,12,3,20,0.00
2013-9-29,90.0,70.9,53.0,40.0,30.1,12.7,46,26,6,30.43,29.07,12,3,20,0.00
2013-9-30,91.0,70.8,52.0,45.6,34.8,25.3,53,30,10,30.43,29.07,11,3,18,0.00
2013-10-1,89.0,70.2,54.0,54.9,45.0,37.4,76,44,18,30.43,29.07,12,3,18,0.00
2013-10-2,80.0,66.6,58.0,59.0,54.7,48.1,88,68,34,29.99,29.85,11,3,17,0.00
2013-10-3,78.0,66.1,59.0,56.7,54.1,48.1,84,67,38,30.43,29.81,13,3,18,0.00
2013-10-4,80.0,69.4,55.0,54.2,18.9,4.0,91,24,6,30.43,29.07,24,10,46,0.01
2013-10-5,85.0,74.3,62.0,20.2,11.7,1.5,17,10,5,30.19,30.06,18,10,39,0.00
2013-10-6,93.0,72.4,57.0,31.0,13.1,-10.9,27,13,2,30.13,29.07,10,4,14,0.00
2013-10-7,88.0,70.4,57.0,45.2,27.3,5.7,63,24,5,30.43,29.07,13,3,22,0.00
2013-10-8,78.0,62.5,49.0,51.7,44.7,37.5,71,55,27,30.43,29.07,14,3,23,0.00
2013-10-9,64.0,55.9,48.0,52.2,47.4,42.2,89,74,48,29.83,29.71,13,4,20,0.26
2013-10-10,67.0,55.4,44.0,47.7,43.8,38.8,90,68,38,30.03,29.80,8,2,12,0.00
2013-10-11,77.0,60.3,46.0,50.1,45.4,36.6,87,62,25,30.43,29.07,10,2,14,0.00
2013-10-12,78.0,62.3,49.0,52.4,46.1,39.6,80,59,28,30.43,29.07,12,3,20,0.00
2013-10-13,72.0,60.4,51.0,53.8,49.6,44.0,91,70,40,30.04,29.93,11,3,18,0.00
2013-10-14,82.0,66.7,49.0,49.0,34.7,23.9,88,41,13,30.43,29.07,17,5,31,0.00
2013-10-15,83.0,69.4,55.0,32.8,24.8,13.8,39,21,10,30.43,29.38,13,6,23,0.00
2013-10-16,83.0,71.1,59.0,30.9,19.4,6.9,33,15,6,30.43,29.07,13,6,26,0.00
2013-10-17,84.0,66.0,52.0,44.7,29.3,14.1,59,29,9,30.43,29.07,11,3,17,0.00
2013-10-18,88.0,67.5,51.0,45.7,35.1,19.8,61,36,9,30.43,29.07,11,3,17,0.00
2013-10-19,90.0,69.8,56.0,48.6,30.9,3.7,60,30,5,30.43,29.07,11,3,17,0.00
2013-10-20,84.0,66.0,51.0,49.6,37.0,26.5,69,38,14,30.43,29.07,9,3,17,0.00
2013-10-21,84.0,64.9,49.0,50.2,40.5,30.6,73,45,16,30.43,29.07,9,2,12,0.00
2013-10-22,87.0,66.0,49.0,53.8,44.5,28.6,81,53,14,30.43,29.07,11,3,18,0.00
2013-10-23,72.0,60.0,52.0,56.7,52.3,47.9,92,77,50,30.39,29.43,10,2,15,0.00
2013-10-24,68.0,60.0,53.0,53.9,51.9,48.9,87,76,56,30.43,29.43,8,2,10,0.00
2013-10-25,75.0,61.2,51.0,57.7,51.8,47.6,92,74,42,30.13,30.01,8,2,12,0.00
2013-10-26,89.0,67.2,49.0,52.2,43.6,22.8,79,50,10,30.43,29.07,9,2,13,0.00
2013-10-27,80.0,64.1,51.0,54.4,44.8,36.0,80,53,26,30.43,29.07,11,4,16,0.00
2013-10-28,66.0,56.4,51.0,52.2,49.1,44.2,86,77,53,29.95,29.81,13,5,22,0.10
2013-10-29,64.0,55.2,48.0,52.2,46.2,40.1,93,74,45,30.02,29.92,11,3,15,0.03
2013-10-30,71.0,57.3,45.0,50.4,42.2,31.3,88,62,24,30.43,29.07,11,3,26,0.00
2013-10-31,79.0,61.7,46.0,42.4,30.8,14.5,78,40,9,30.43,29.07,10,3,18,0.00
2013-11-1,84.0,67.4,51.0,33.4,26.8,17.6,44,25,9,30.43,29.07,13,4,21,0.00
2013-11-2,81.0,64.8,51.0,44.4,32.4,20.0,70,33,11,30.43,29.07,14,4,23,0.00
2013-11-3,69.0,57.1,46.0,51.6,46.7,39.9,86,70,42,29.96,29.81,9,2,14,0.00
2013-11-4,64.0,56.8,49.0,52.9,49.6,44.4,86,77,57,30.43,29.80,7,2,12,0.03
2013-11-5,70.0,61.6,47.0,45.3,14.5,-0.9,90,21,8,30.43,29.07,19,9,37,0.00
2013-11-6,79.0,63.6,47.0,19.3,9.2,-4.9,30,15,5,30.43,29.07,14,5,25,0.00
2013-11-7,85.0,67.5,56.0,24.9,17.8,-1.9,28,16,4,30.15,29.07,9,4,13,0.00
2013-11-8,80.0,63.4,49.0,37.5,24.3,2.9,48,26,6,30.44,29.07,8,2,12,0.00
2013-11-9,80.0,61.4,45.0,35.9,27.5,1.5,54,32,6,30.43,29.07,7,2,12,0.00
2013-11-10,78.0,61.6,50.0,45.7,28.8,3.3,76,35,6,30.43,29.34,7,2,10,0.00
2013-11-11,80.0,62.1,45.0,43.4,37.1,25.7,75,45,14,30.43,29.07,9,3,15,0.00
2013-11-12,80.0,66.1,51.0,43.1,35.6,21.8,66,35,15,30.43,29.07,7,2,12,0.00
2013-11-13,88.0,74.0,58.0,34.9,18.9,5.5,36,16,5,30.43,29.43,13,6,22,0.00
2013-11-14,87.0,73.0,60.0,34.5,24.5,10.4,37,18,6,30.45,29.07,12,4,21,0.00
2013-11-15,67.0,58.8,50.0,51.6,44.8,32.3,83,61,36,30.43,29.68,9,3,12,0.04
2013-11-16,62.0,57.2,55.0,52.5,48.3,42.8,88,73,55,29.95,29.78,11,4,15,0.23
2013-11-17,67.0,57.5,50.0,49.0,46.0,41.9,85,67,43,30.11,29.94,7,2,10,0.00
2013-11-18,67.0,55.8,45.0,51.5,47.2,41.7,90,74,48,30.55,30.03,9,2,14,0.00
2013-11-19,64.0,57.9,55.0,53.2,49.1,46.1,84,73,58,30.43,29.43,8,3,12,0.00
2013-11-20,63.0,57.4,54.0,52.5,49.9,47.1,90,76,62,29.99,29.43,6,2,9,0.11
2013-11-21,62.0,56.0,51.0,58.4,53.0,47.5,93,90,82,30.43,29.43,9,3,15,1.07
2013-11-22,53.0,50.6,49.0,48.8,38.6,33.9,92,64,55,29.98,29.43,24,13,41,0.02
2013-11-23,59.0,52.4,47.0,40.0,37.8,35.2,69,58,47,30.10,29.95,18,9,31,0.00
2013-11-24,66.0,54.4,44.0,41.0,38.1,35.4,75,55,37,30.20,29.43,12,4,23,0.00
2013-11-25,72.0,57.0,44.0,43.0,37.1,27.9,76,52,20,30.43,29.07,16,4,22,0.00
2013-11-26,75.0,59.6,45.0,40.1,35.1,26.6,76,44,20,30.43,29.07,10,4,17,0.00
2013-11-27,73.0,59.7,49.0,39.1,33.8,27.0,61,40,20,30.43,29.07,11,4,15,0.00
2013-11-28,70.0,55.7,46.0,42.5,36.3,31.2,65,50,27,30.43,29.07,9,3,13,0.00
2013-11-29,62.0,54.8,49.0,48.7,42.4,35.7,74,63,50,30.43,29.43,12,3,17,0.03
2013-11-30,73.0,60.8,48.0,47.0,37.7,28.4,78,47,22,30.43,29.07,15,5,25,0.00
2013-12-1,76.0,65.0,52.0,37.1,28.5,18.9,50,27,12,30.43,29.07,15,5,24,0.00
2013-12-2,74.0,58.1,48.0,36.1,30.2,20.9,53,37,14,30.43,29.07,7,2,9,0.00
2013-12-3,66.0,54.4,43.0,49.0,38.9,30.5,83,58,30,29.93,29.74,14,3,28,0.02
2013-12-4,57.0,49.8,42.0,43.7,27.3,15.1,77,45,21,30.43,29.07,12,4,21,0.02
2013-12-5,57.0,46.9,39.0,36.8,31.5,24.2,77,57,30,30.43,29.43,8,3,14,0.00
2013-12-6,57.0,47.8,40.0,38.2,34.5,29.9,77,61,43,30.18,29.43,11,3,15,0.00
2013-12-7,49.0,45.1,41.0,45.6,39.2,32.9,90,80,67,30.12,29.97,7,2,12,0.43
2013-12-8,55.0,44.6,37.0,40.3,29.7,14.2,93,60,31,30.20,30.07,13,4,26,0.00
2013-12-9,52.0,46.0,41.0,15.1,0.8,-6.5,32,16,10,30.43,29.07,26,12,50,0.01
2013-12-10,62.0,50.9,39.0,17.8,3.7,-6.5,36,16,8,30.43,29.32,20,8,36,0.00
2013-12-11,66.0,55.5,42.0,19.8,12.0,5.5,38,19,10,30.43,29.07,16,8,30,0.00
2013-12-12,67.0,56.6,44.0,33.4,20.6,8.9,54,27,14,30.43,29.07,14,5,24,0.00
2013-12-13,63.0,50.7,36.0,34.2,28.5,11.3,75,46,15,30.43,29.32,14,3,87,0.00
2013-12-14,70.0,62.9,56.0,18.7,13.5,7.6,23,15,10,30.32,29.43,21,10,40,0.00
2013-12-15,77.0,63.0,49.0,26.6,17.9,8.9,31,19,8,30.43,29.07,16,6,23,0.00
2013-12-16,82.0,67.3,55.0,31.0,21.2,10.3,33,20,7,30.43,29.07,15,6,25,0.00
2013-12-17,83.0,71.0,60.0,32.8,22.3,10.3,31,17,7,30.43,29.07,21,6,33,0.00
2013-12-18,72.0,60.5,51.0,49.3,36.8,28.5,85,44,23,30.43,29.07,12,3,17,0.00
2013-12-19,55.0,49.6,45.0,48.9,44.2,40.7,91,82,68,29.87,29.43,9,3,14,0.50
2013-12-20,62.0,52.9,45.0,44.7,34.2,24.2,91,53,27,30.43,29.07,17,6,27,0.00
2013-12-21,58.0,47.9,39.0,44.8,40.0,35.2,89,75,54,30.07,29.89,7,2,9,0.00
2013-12-22,67.0,51.1,38.0,47.2,38.1,32.0,91,65,33,30.26,30.06,7,2,10,0.00
2013-12-23,72.0,58.6,48.0,36.2,32.6,28.1,62,40,21,30.43,29.07,13,5,23,0.00
2013-12-24,77.0,64.0,47.0,34.5,29.1,21.6,55,30,13,30.43,29.43,19,7,28,0.00
2013-12-25,72.0,65.9,54.0,25.7,16.3,1.4,25,15,8,30.43,30.13,21,10,37,0.00
2013-12-26,73.0,62.4,48.0,23.9,6.8,-7.7,33,14,5,30.43,29.07,20,7,32,0.00
2013-12-27,79.0,61.3,48.0,21.6,11.4,-5.3,27,16,4,30.17,30.05,9,3,16,0.00
2013-12-28,73.0,57.9,45.0,33.0,22.6,4.5,59,29,7,30.43,29.07,6,2,7,0.00
2013-12-29,69.0,62.9,45.0,31.2,3.9,-6.2,57,10,6,30.16,29.99,24,11,43,0.00
2013-12-30,70.0,56.1,45.0,22.4,11.1,0.8,31,18,7,30.43,29.43,7,3,15,0.00
2013-12-31,71.0,53.9,41.0,27.4,19.1,4.4,43,28,8,30.43,29.43,6,2,9,0.00
2014-1-1,77.0,59.2,40.0,25.2,18.8,7.4,52,26,7,30.43,29.07,14,4,25,0.00
2014-1-2,78.0,62.9,51.0,28.2,22.9,16.1,34,23,11,30.43,29.07,11,4,17,0.00